Le nostre stazioni meteo in Italia

Pubblicità
Il mio iltempo24.it
Fyvie castle, Gran Bretagna (99010): Temperatura & dewpoint: 22.06.2017 23:00:00 - 28.06.2017 23:00:00 (BST)Fyvie castle, Gran Bretagna (99010): velocità del vento: 22.06.2017 23:00:00 - 28.06.2017 23:00:00 (BST)Fyvie castle, Gran Bretagna (99010): direzione del vento: 22.06.2017 23:00:00 - 28.06.2017 23:00:00 (BST)Fyvie castle, Gran Bretagna (99010): visibility: 22.06.2017 23:00:00 - 28.06.2017 23:00:00 (BST)Fyvie castle, Gran Bretagna (99010): precipitazioni: 22.06.2017 23:00:00 - 28.06.2017 23:00:00 (BST)
Data & Tempo tt [°C] td [°C] ff [km/h] ff [kn] dd vv [km] rr [mm]
28.06.2017 23:00:00 10,4 8,1 - - - - 0,0
28.06.2017 22:00:00 10,6 7,4 - - - - 0,0
28.06.2017 21:00:00 10,9 6,8 - - - - 0,0
28.06.2017 20:00:00 11,2 6,8 - - - - 0,0
28.06.2017 19:00:00 11,9 6,2 - - - - 0,0
28.06.2017 18:00:00 12,4 6,2 - - - - 0,0
28.06.2017 17:00:00 12,7 6,2 - - - - 0,0
28.06.2017 16:00:00 13,0 7,0 - - - - 0,0
28.06.2017 15:00:00 13,2 6,5 - - - - 0,0
28.06.2017 14:00:00 14,4 6,5 - - - - 0,2
28.06.2017 13:00:00 13,5 6,2 - - - - 0,0
28.06.2017 12:00:00 13,2 7,3 - - - - 0,0
28.06.2017 11:00:00 13,5 7,4 - - - - 0,0
28.06.2017 10:00:00 12,5 7,4 32 18 N 10 0,0
28.06.2017 09:00:00 12,0 8,0 - - - - 0,0
28.06.2017 08:00:00 11,5 7,9 - - - - 0,0
28.06.2017 07:00:00 11,1 8,4 - - - - 0,0
28.06.2017 06:00:00 10,4 8,4 - - - - 0,0
28.06.2017 05:00:00 10,0 8,2 - - - - 0,0
28.06.2017 04:00:00 10,0 8,1 - - - - 0,0
28.06.2017 03:00:00 10,1 8,3 - - - - 0,0
28.06.2017 02:00:00 10,2 8,3 - - - - 0,0
28.06.2017 01:00:00 10,2 8,4 - - - - 0,0
28.06.2017 00:00:00 10,3 8,6 - - - - 0,0
27.06.2017 23:00:00 10,3 8,7 - - - - 0,0
27.06.2017 22:00:00 10,5 9,1 - - - - 0,0
27.06.2017 21:00:00 10,7 9,3 - - - - 0,0
27.06.2017 20:00:00 10,7 9,1 - - - - 0,2
27.06.2017 19:00:00 10,7 8,7 - - - - 0,0
27.06.2017 18:00:00 11,0 7,8 - - - - 0,0
27.06.2017 17:00:00 10,9 7,6 - - - - 0,0
27.06.2017 16:00:00 11,3 8,0 - - - - 0,0
27.06.2017 15:00:00 11,7 8,3 - - - - 0,0
27.06.2017 14:00:00 11,5 7,6 - - - - 0,0
27.06.2017 13:00:00 11,4 8,3 - - - - 0,2
27.06.2017 12:00:00 11,1 9,0 - - - - 0,0
27.06.2017 11:00:00 11,3 8,5 - - - - 0,0
27.06.2017 10:00:00 11,7 7,9 68 37 N 0,2 0,0
27.06.2017 09:00:00 11,5 8,3 - - - - 0,0
27.06.2017 08:00:00 10,8 8,1 - - - - 0,0
27.06.2017 07:00:00 10,4 8,1 - - - - 0,0
27.06.2017 06:00:00 9,6 7,9 - - - - 0,0
27.06.2017 05:00:00 9,2 7,5 - - - - 0,0
27.06.2017 04:00:00 9,4 7,8 - - - - 0,0
27.06.2017 03:00:00 9,5 7,8 - - - - 0,0
27.06.2017 02:00:00 9,5 7,9 - - - - 0,0
27.06.2017 01:00:00 9,7 7,8 - - - - 0,0
27.06.2017 00:00:00 9,9 7,8 - - - - 0,0
26.06.2017 23:00:00 10,0 7,7 - - - - 0,0
26.06.2017 22:00:00 10,4 7,3 - - - - 0,0
26.06.2017 21:00:00 10,6 7,0 - - - - 0,0
26.06.2017 20:00:00 11,1 6,9 - - - - 0,0
26.06.2017 19:00:00 11,6 7,1 - - - - 0,0
26.06.2017 18:00:00 12,3 7,5 - - - - 0,0
26.06.2017 17:00:00 13,6 5,8 - - - - 0,0
26.06.2017 16:00:00 14,5 6,6 - - - - 0,0
26.06.2017 15:00:00 13,8 5,6 - - - - 0,0
26.06.2017 14:00:00 13,9 5,1 - - - - 0,0
26.06.2017 13:00:00 13,7 6,0 - - - - 0,0
26.06.2017 12:00:00 13,7 7,4 - - - - 0,0
26.06.2017 11:00:00 11,8 8,8 - - - - 0,2
26.06.2017 10:00:00 11,5 9,2 - - N 5 0,0
26.06.2017 09:00:00 11,3 8,5 - - - - 0,4
26.06.2017 08:00:00 11,0 8,3 - - - - 0,2
26.06.2017 07:00:00 10,0 8,2 - - - - 0,0
26.06.2017 06:00:00 9,0 7,4 - - - - 0,0
26.06.2017 05:00:00 7,9 6,6 - - - - 0,0
26.06.2017 04:00:00 8,4 6,9 - - - - 0,0
26.06.2017 03:00:00 8,5 7,0 - - - - 0,0
26.06.2017 02:00:00 8,7 7,1 - - - - 0,0
26.06.2017 01:00:00 9,6 7,6 - - - - 0,0
26.06.2017 00:00:00 9,3 6,9 - - - - 0,0
25.06.2017 23:00:00 9,7 6,6 - - - - 0,0
25.06.2017 22:00:00 11,3 7,1 - - - - 0,0
25.06.2017 21:00:00 11,6 6,9 - - - - 0,0
25.06.2017 20:00:00 12,7 6,6 - - - - 0,0
25.06.2017 19:00:00 13,9 6,9 - - - - 0,0
25.06.2017 18:00:00 14,0 6,5 - - - - 0,0
25.06.2017 17:00:00 14,0 5,9 - - - - 0,0
25.06.2017 16:00:00 14,8 6,7 - - - - 0,0
25.06.2017 15:00:00 15,9 7,3 - - - - 0,0
25.06.2017 14:00:00 15,4 6,7 - - - - 0,0
25.06.2017 13:00:00 15,0 6,5 - - - - 0,0
25.06.2017 12:00:00 14,8 6,3 - - - - 0,0
25.06.2017 11:00:00 15,0 5,4 - - - - 0,0
25.06.2017 10:00:00 14,2 6,1 - - N 24 0,0
25.06.2017 09:00:00 13,3 6,9 - - - - 0,0
25.06.2017 08:00:00 11,5 7,0 - - - - 0,0
25.06.2017 07:00:00 10,9 6,7 - - - - 0,0
25.06.2017 06:00:00 9,6 6,2 - - - - 0,0
25.06.2017 05:00:00 9,8 6,5 - - - - 0,0
25.06.2017 04:00:00 9,9 6,7 - - - - 0,0
25.06.2017 03:00:00 9,7 6,5 - - - - 0,0
25.06.2017 02:00:00 9,9 6,7 - - - - 0,0
25.06.2017 01:00:00 10,0 6,5 - - - - 0,0
25.06.2017 00:00:00 10,3 4,9 - - - - 0,0
24.06.2017 23:00:00 10,8 4,6 - - - - 0,0
24.06.2017 22:00:00 11,5 3,9 - - - - 0,0
24.06.2017 21:00:00 12,5 4,6 - - - - 0,0
24.06.2017 20:00:00 13,5 5,3 - - - - 0,0
24.06.2017 19:00:00 14,4 5,2 - - - - 0,0
24.06.2017 18:00:00 14,6 5,5 - - - - 0,0
24.06.2017 17:00:00 16,5 6,2 - - - - 0,0
24.06.2017 16:00:00 15,4 6,8 - - - - 0,0
24.06.2017 15:00:00 15,6 5,7 - - - - 0,0
24.06.2017 14:00:00 15,7 6,3 - - - - 0,0
24.06.2017 13:00:00 15,1 5,4 - - - - 0,0
24.06.2017 12:00:00 14,7 5,5 - - - - 0,0
24.06.2017 11:00:00 15,1 6,4 - - - - 0,0
24.06.2017 10:00:00 14,0 6,2 8 4 N 16 0,0
24.06.2017 09:00:00 14,1 5,4 - - - - 0,0
24.06.2017 08:00:00 12,9 5,7 - - - - 0,0
24.06.2017 07:00:00 12,2 6,0 - - - - 0,0
24.06.2017 06:00:00 11,4 5,7 - - - - 0,0
24.06.2017 05:00:00 10,3 5,6 - - - - 0,0
24.06.2017 04:00:00 9,3 5,0 - - - - 0,0
24.06.2017 03:00:00 11,1 5,3 - - - - 0,0
24.06.2017 02:00:00 12,0 5,5 - - - - 0,0
24.06.2017 01:00:00 12,3 4,8 - - - - 0,0
24.06.2017 00:00:00 11,4 4,6 - - - - 0,0
23.06.2017 23:00:00 11,9 5,4 - - - - 0,0
23.06.2017 22:00:00 13,1 4,9 - - - 10 0,0
23.06.2017 21:00:00 14,6 6,0 - - - - 0,0
23.06.2017 20:00:00 15,9 6,7 - - - - 0,0
23.06.2017 19:00:00 16,8 5,7 - - - - 0,0
23.06.2017 18:00:00 18,0 7,4 - - - - 0,0
23.06.2017 17:00:00 18,8 7,1 - - - - 0,0
23.06.2017 16:00:00 19,3 6,8 - - - - 0,0
23.06.2017 15:00:00 18,7 8,0 - - - - 0,0
23.06.2017 14:00:00 18,5 8,7 - - - - 0,0
23.06.2017 13:00:00 18,5 9,6 - - - - 0,0
23.06.2017 12:00:00 18,4 9,5 - - - - 0,0
23.06.2017 11:00:00 18,8 11,8 - - - - 0,0
23.06.2017 10:00:00 18,0 12,9 43 23 N 0,1 0,0
23.06.2017 09:00:00 16,9 12,7 - - - - 0,0
23.06.2017 08:00:00 14,8 12,1 - - - - 0,0
23.06.2017 07:00:00 12,5 11,7 - - - - 0,0
23.06.2017 06:00:00 11,2 10,6 - - - - 0,0
23.06.2017 05:00:00 11,7 10,9 - - - - 0,0
23.06.2017 04:00:00 11,6 11,1 - - - - 0,4
23.06.2017 03:00:00 11,6 11,0 - - - - 0,8
23.06.2017 02:00:00 11,4 11,1 - - - - 1,0
23.06.2017 01:00:00 11,4 10,9 - - - - 0,0
23.06.2017 00:00:00 11,5 10,9 - - - - 0,4
22.06.2017 23:00:00 11,5 10,9 - - - - 0,6

tt = Temperatura
td = dewpoint
ff = velocità del vento
dd = direzione del vento
vv = visibility
rr = precipitazioni

Stazioni seguenti

WeatherPro
AMSI
MeteoEarth